Weather History for KHUM - October, 2012

Change the Weather History Date:

Thursday, October 18, 2012

  Actual Average Record
Temperature  
Mean Temperature 72 °F -  
Max Temperature 82 °F 79 °F 89 °F (1941)
Min Temperature 63 °F 58 °F 40 °F (1943)
Cooling Degree Days 8    
Growing Degree Days 22 (Base 50)    
Moisture  
Dew Point 67 °F    
Average Humidity 84    
Maximum Humidity 100    
Minimum Humidity 42    
Precipitation  
Precipitation 0.00 in - - ()
Sea Level Pressure  
Sea Level Pressure 29.81 in    
Wind  
Wind Speed 5 mph (South)    
Max Wind Speed 23 mph    
Max Gust Speed 21 mph    
Visibility 7 miles    
Events      
Averages and records for this station are not official NWS values.
T = Trace of Precipitation, MM = Missing Value Source: NWS Daily Summary

Daily Weather History Graph

Daily Weather History Graph

Search for Another Location

Airport or City:

Trip Planner

Search our weather history database for the weather conditions in past years. The results will help you decide how hot, cold, wet, or windy it might be!

Date:

Astronomy

Oct. 18, 2012 Rise Set
Actual Time 7:06 AM CDT 6:28 PM CDT
Civil Twilight 6:42 AM CDT 6:52 PM CDT
Nautical Twilight 6:14 AM CDT 7:20 PM CDT
Astronomical Twilight 5:46 AM CDT 7:47 PM CDT
Moon 10:33 AM CDT (10/18) 9:18 PM CDT (10/18)
Length of Visible Light 12h 10m
Length of Day
11h 22m
Waxing Crescent, 14% of the Moon is Illuminated
Oct 18
Waxing Crescent
Oct 21
First Quarter
Oct 29
Full
Nov 6
Last Quarter
Nov 13
New

Hourly Weather History & Observations

Time (CDT) Temp. Heat Index Dew Point Humidity Pressure Visibility Wind Dir Wind Speed Gust Speed Precip Events Conditions
12:15 AM 73.8 °F - 73.8 °F 100% 29.77 in 7.0 mi South 3.5 mph - N/A   Clear
12:35 AM 73.4 °F - 73.4 °F 100% 29.76 in 7.0 mi SSE 5.8 mph - N/A   Clear
12:55 AM 73.4 °F - 73.4 °F 100% 29.76 in 7.0 mi South 5.8 mph - N/A   Clear
1:15 AM 73.4 °F - 73.4 °F 100% 29.75 in 7.0 mi SSE 6.9 mph - N/A   Clear
1:35 AM 73.6 °F - 73.6 °F 100% 29.76 in 7.0 mi Calm Calm - N/A   Clear
1:55 AM 73.4 °F - 73.4 °F 100% 29.76 in 7.0 mi South 3.5 mph - N/A   Scattered Clouds
2:15 AM 73.4 °F - 73.4 °F 100% 29.76 in 7.0 mi South 4.6 mph - N/A   Scattered Clouds
2:35 AM 73.4 °F - 73.4 °F 100% 29.75 in 7.0 mi South 3.5 mph - N/A   Clear
2:55 AM 73.0 °F - 73.0 °F 100% 29.76 in 7.0 mi Calm Calm - N/A   Clear
3:15 AM 73.0 °F - 73.0 °F 100% 29.75 in 7.0 mi SE 3.5 mph - N/A   Scattered Clouds
3:35 AM 72.9 °F - 72.9 °F 100% 29.75 in 5.0 mi South 3.5 mph - N/A   Scattered Clouds
3:55 AM 73.0 °F - 73.0 °F 100% 29.75 in 7.0 mi South 3.5 mph - N/A   Scattered Clouds
4:15 AM 73.0 °F - 73.0 °F 100% 29.74 in 5.0 mi South 4.6 mph - N/A   Scattered Clouds
4:35 AM 73.6 °F - 73.6 °F 100% 29.74 in 7.0 mi SSE 4.6 mph - N/A   Clear
4:55 AM 74.1 °F - 74.1 °F 100% 29.75 in 7.0 mi Calm Calm - N/A   Clear
5:15 AM 74.3 °F - 74.3 °F 100% 29.76 in 7.0 mi Calm Calm - N/A   Clear
5:35 AM 74.3 °F - 74.3 °F 100% 29.75 in 7.0 mi Calm Calm - N/A   Clear
5:48 AM 73.4 °F - 73.4 °F 100% 29.76 in 7.0 mi SSW 6.9 mph - N/A   Scattered Clouds
5:55 AM 74.3 °F - 74.3 °F 100% 29.76 in 7.0 mi Calm Calm - N/A   Clear
6:50 AM 75.2 °F - 75.2 °F 100% 29.78 in 7.0 mi SSW 6.9 mph - N/A   Scattered Clouds
7:50 AM 75.2 °F - 75.2 °F 100% 29.79 in 6.0 mi South 6.9 mph - N/A   Mostly Cloudy
8:51 AM 78.8 °F - 78.8 °F 100% 29.81 in 6.0 mi SW 9.2 mph - N/A   Mostly Cloudy
9:25 AM 78.8 °F - 78.8 °F 100% 29.81 in 6.0 mi WSW 9.2 mph - N/A   Mostly Cloudy
9:55 AM 75.2 °F - 73.4 °F 94% 29.85 in 6.0 mi NNW 17.3 mph - N/A   Mostly Cloudy
10:47 AM 75.2 °F - 66.2 °F 73% 29.86 in 7.0 mi NNE 23.0 mph - N/A   Partly Cloudy
11:50 AM 78.8 °F - 64.4 °F 61% 29.86 in 7.0 mi NNE 15.0 mph 20.7 mph N/A   Clear
12:50 PM 78.8 °F - 62.6 °F 57% 29.85 in 7.0 mi North 15.0 mph - N/A   Partly Cloudy
1:50 PM 80.6 °F 81.8 °F 62.6 °F 54% 29.83 in 7.0 mi North 11.5 mph - N/A   Partly Cloudy
2:50 PM 82.4 °F 82.0 °F 57.2 °F 42% 29.83 in 7.0 mi North 11.5 mph - N/A   Mostly Cloudy
3:50 PM 80.6 °F 80.5 °F 55.4 °F 42% 29.84 in 7.0 mi North 11.5 mph - N/A   Mostly Cloudy
4:50 PM 78.8 °F - 55.4 °F 44% 29.83 in 7.0 mi NNE 13.8 mph - N/A   Mostly Cloudy
5:50 PM 75.2 °F - 53.6 °F 47% 29.84 in 7.0 mi NNE 11.5 mph - N/A   Scattered Clouds
7:15 PM 69.4 °F - 54.7 °F 59% 29.86 in 10.0 mi Calm Calm - N/A   Clear
7:55 PM 67.5 °F - 55.9 °F 66% 29.87 in 10.0 mi North 3.5 mph - N/A   Clear
8:35 PM 65.7 °F - 54.7 °F 68% 29.88 in 10.0 mi Calm Calm - N/A   Clear
8:55 PM 63.9 °F - 59.0 °F 84% 29.88 in 10.0 mi Calm Calm - N/A   Clear
9:15 PM 63.7 °F - 55.6 °F 75% 29.89 in 10.0 mi Calm Calm - N/A   Clear
9:35 PM 65.1 °F - 55.9 °F 72% 29.90 in 10.0 mi Calm Calm - N/A   Clear
9:55 PM 63.0 °F - 56.5 °F 79% 29.91 in 10.0 mi Calm Calm - N/A   Clear
10:15 PM 64.0 °F - 56.1 °F 75% 29.91 in 7.0 mi Calm Calm - N/A   Clear
10:35 PM 63.0 °F - 56.3 °F 79% 29.91 in 7.0 mi Calm Calm - N/A   Clear
10:55 PM 63.1 °F - 55.6 °F 76% 29.91 in 10.0 mi North 3.5 mph - N/A   Scattered Clouds